CZ-6A DEB

Satellite information

Favourite Embed

Satellite Type and Status

DEBRISIN ORBIT

Key statistics

Satellite CZ-6A DEB at a glance.

Uptime

969

Days in orbit

Revolutions

≈ 14.0

Per day

Orbit

SSO

Sun Synchronous Orbit

Inclination

98.9

Latest

Satellite identification and parameters

Extended collection of information and parameters for CZ-6A DEB.

Object identification

Identified? True

Debris? True

Object name: CZ-6A DEB

International designator: 2022-151DJ

Object number (NORAD): 54386

Object ID (CCSDS): 54386

Country: PEOPLES REPUBLIC OF CHINA (PRC)

Current information (Y/N): Y

RCS size: SMALL

Orbital parameters

Period: 103.047 minutes

Inclination: 98.8907 deg

SMA: 7280.858 km

Apoapsis: 995.999 km

Periapsis: 809.447 km

RAAN: 172.8825 deg

Eccentricy: 0.0128111

Argument of periapsis: 320.5333 deg

Mean anomaly: 38.6552 deg

Mean motion: 13.9742625 rev/day

Mean motion (dot): 0.00000457 rev/day2

B* drag term: 0.00033257 1/REarth

Two-line elements (TLE)

Creation date: July 6, 2025, 10:46 p.m.

Reference frame: TEME

Reference center: EARTH

Epoch: July 6, 2025, 8:44 p.m. UTC

TLE line 0: 0 CZ-6A DEB

TLE line 1: 1 54386U 22151DJ 25187.86443255 .00000457 00000-0 33257-3 0 9996

TLE line 2: 2 54386 98.8907 172.8825 0128111 320.5333 38.6552 13.97426250134506

Live tracking on map

Real-time ground track for satellite CZ-6A DEB.

In-orbit conjunctions

A list of the most updated potential collisions computed for object CZ-6A DEB.

Target Orbit TCA Probability of collision Miss distance Type
CZ-4C R/B LEO 2024-09-28 21:30:58 0.0002090801 295.0 (m) ROCKET BODY
DELTA 1 DEB SSO 2024-05-30 22:24:47 0.0001351404 134.0 (m) DEBRIS

Associated space launch

Chinese satellite reported for atmospheric/ocean/environmental/spatial parameter research purposes, details TBD.

CZ-6A DEB was lifted into orbit during the mission ‘Long March 6A | Yunhai 3’, on board a Long March 6A space rocket.

The launch took place on Nov. 11, 2022, 10:52 p.m. from Launch Complex 9A.

For more information about the launch, click the button.

Launch to space Long March 6A | Yunhai 3
Long March 6A | Yunhai 3

Agency: N/A

Status: Launch Successful

Launch date: Nov. 11, 2022, 10:52 p.m. UTC

Rocket: Long March 6A

Launch pad: Launch Complex 9A

Location: Taiyuan Satellite Launch Center, People's Republic of China

...

Latest news about this satellite

There are no fresh news available about this satellite. Check back as we update our databases every day.


Newsletter sign-up

Weekly statistics, charts and insights to help you stay on top of the space industry.